AirNav   Air Wisconsin pilot careers
 
 315 users online  

87KY Midwest Communication Heliport
Highland Heights, Kentucky, USA

GOING TO HIGHLAND HEIGHTS?


FAA INFORMATION EFFECTIVE 12 OCTOBER 2017

Location

FAA Identifier: 87KY
Lat/Long: 39-02-20.2400N / 084-27-45.3200W
39-02.337333N / 084-27.755333W
39.0389556 / -84.4625889
(estimated)
Elevation: 850 ft. / 259 m (estimated)
Variation: 03W (1985)
From city: 1 mile W of HIGHLAND HEIGHTS, KY
Time zone: UTC -4 (UTC -5 during Standard Time)
Zip code: 41076

Heliport Operations

Heliport use: Private use. Permission required prior to landing
Activation date: 05/1991
Control tower: no
ARTCC: INDIANAPOLIS CENTER
FSS: LOUISVILLE FLIGHT SERVICE STATION
Attendance: MON-SAT 0600-0000
Segmented circle: no

Heliport Communications

WX ASOS at LUK (4 nm NE): PHONE 513-321-6291
WX ASOS at CVG (10 nm W): PHONE 859-767-8210
WX AWOS-3 at I69 (12 nm E): 127.275 (513-732-6978)
WX AWOS-3PT at I67 (20 nm NW): 118.15 (513-569-4964)
WX ASOS at HAO (20 nm N): 121.425 (513-863-6137)

Nearby radio navigation aids

VOR radial/distance  VOR name  Freq  Var
CVGr087/11.3CINCINNATI VORTAC117.3004W
FLMr347/24.4FALMOUTH VOR/DME117.0004W
MXQr237/38.7MIDWEST VOR/DME112.9004W

 
NDB name  Hdg/Dist  Freq  Var  ID
CINCINNATI222/9.233504WLUK .-.. ..- -.-
SPORTYS263/11.724504WPWF .--. .-- ..-.
MADEIRA208/12.137904WMDE -- -.. .
HOOK FIELD185/27.623904WHKF .... -.- ..-.

Heliport Services

Runway Information

Helipad H1

Dimensions: 23 x 23 ft. / 7 x 7 m
Surface: concrete
Latitude: 39-02.670667N
Longitude: 084-27.755333W
Elevation: 850.0 ft.
Traffic pattern: leftleft

Heliport Ownership and Management from official FAA records

Ownership: Privately-owned
Owner: MIDWEST COMMUNICATION
FOUR TESSENEER DRIVE
HIGHLAND HEIGHTS, KY 41076
Phone 513-871-3261
Manager: THOMAS BLAND
455 WILMER AVE
CINCINNATI, OH 45226
Phone 513-871-3261

Instrument Procedures

There are no published instrument procedures at 87KY.

Some nearby airports with instrument procedures:

KLUK - Cincinnati Municipal Airport-Lunken Field (4 nm NE)
KCVG - Cincinnati/Northern Kentucky International Airport (10 nm W)
I69 - Clermont County Airport (12 nm E)
I67 - Cincinnati West Airport (20 nm NW)
KHAO - Butler County Regional Airport-Hogan Field (20 nm N)
 
Loc | Ops | Rwys | IFR | FBO | Links
Com | Nav | Svcs | Stats | Notes


 
Area around 87KY (Midwest Communication Heliport)
 
Road maps at: MapQuest Bing Google
 
Aerial photo
No photo
 
Sectional chart

 
Airport distance calculator
Flying to Midwest Communication Heliport? Find the distance to fly.

From to 87KY

Sunrise and sunset
Times for 22-Oct-2017
 Local
(UTC-4)
 Zulu
(UTC)
Morning civil twilight07:2811:28
Sunrise07:5611:56
Sunset18:4922:49
Evening civil twilight19:1623:16

Current date and time
Zulu (UTC)  22-Oct-2017 09:29:31
Local (UTC-4)  22-Oct-2017 05:29:31
 
METAR
KLUK 
4nm NE 
220909Z AUTO 00000KT 1/2SM R21L/4000VP6000FT FG VV002 07/07 A3020 RMK AO2 T00670067
KCVG 
10nm W 
220852Z 18007KT 10SM FEW250 13/09 A3017 RMK AO2 SLP212 T01330094 58004
KI69 
12nm E 
220914Z AUTO 00000KT 10SM CLR 13/10 A3021 RMK AO2 T01280095
KI67 
20nm NW 
220915Z AUTO 00000KT 10SM CLR 07/05 A3017 RMK AO1
KHAO 
20nm N 
220853Z AUTO 09005KT 10SM CLR 10/09 A3019 RMK AO2 SLP221 T01000094 58001
TAF
KLUK 
4nm NE 
220530Z 2206/2306 00000KT 1/2SM FG SCT120 BKN250 FM221300 17009KT P6SM FEW250 FM230000 15005KT P6SM BKN130
KCVG 
10nm W 
220530Z 2206/2312 16004KT P6SM SCT120 BKN250 FM221400 17010KT P6SM FEW250 FM230000 15005KT P6SM BKN130 FM230900 16007KT P6SM -SHRA OVC050
NOTAMs
Click for the latest NOTAMs
NOTAMs are issued by the DoD/FAA and will open in a separate window not controlled by AirNav.

 

 
 

Would you like to see your business listed on this page?

 If your business provides an interesting product or service to pilots, flight crews, aircraft, or users of the Midwest Communication Heliport, you should consider listing it here.  To start the listing process, click on the button below
 
Add a business
 

Other Pages about Midwest Communication Heliport

Update a link
 
Copyright © AirNav, LLC. All rights reserved. Privacy Policy  Contact